TimePDT,TemperatureF,Dew PointF,Humidity,Sea Level PressureIn,VisibilityMPH,Wind Direction,Wind SpeedMPH,Gust SpeedMPH,PrecipitationIn,Events,Conditions,WindDirDegrees,DateUTC
12:15 AM,44.6,37.4,76,29.87,10.0,Calm,Calm,-,N/A,,Clear,0,2014-05-06 07:15:00
12:35 AM,44.6,37.4,76,29.85,10.0,Calm,Calm,-,N/A,,Clear,0,2014-05-06 07:35:00
4:35 AM,46.4,41.0,81,29.85,10.0,Calm,Calm,-,N/A,,Mostly Cloudy,0,2014-05-06 11:35:00
4:55 AM,46.4,41.0,81,29.85,10.0,Calm,Calm,-,N/A,,Overcast,0,2014-05-06 11:55:00
5:15 AM,46.4,41.0,81,29.85,10.0,Calm,Calm,-,N/A,,Overcast,0,2014-05-06 12:15:00
5:35 AM,46.4,41.0,81,29.86,10.0,Calm,Calm,-,N/A,,Overcast,0,2014-05-06 12:35:00
5:55 AM,46.4,41.0,81,29.86,10.0,Calm,Calm,-,N/A,,Overcast,0,2014-05-06 12:55:00
6:55 AM,46.4,42.8,87,29.88,10.0,Calm,Calm,-,N/A,,Overcast,0,2014-05-06 13:55:00
7:15 AM,46.4,42.8,87,29.88,10.0,WSW,3.5,-,N/A,,Overcast,250,2014-05-06 14:15:00
7:35 AM,46.4,44.6,93,29.88,10.0,NW,3.5,-,N/A,,Overcast,320,2014-05-06 14:35:00
7:55 AM,48.2,44.6,87,29.88,10.0,West,4.6,-,N/A,,Overcast,270,2014-05-06 14:55:00
8:15 AM,48.2,42.8,82,29.87,10.0,North,3.5,-,N/A,,Overcast,10,2014-05-06 15:15:00
8:35 AM,50.0,42.8,76,29.87,10.0,NNW,3.5,-,N/A,,Mostly Cloudy,340,2014-05-06 15:35:00
8:55 AM,51.8,42.8,71,29.87,10.0,WSW,5.8,-,N/A,,Mostly Cloudy,250,2014-05-06 15:55:00
9:15 AM,53.6,42.8,67,29.87,10.0,SW,6.9,-,N/A,,Mostly Cloudy,230,2014-05-06 16:15:00
9:35 AM,55.4,42.8,63,29.87,10.0,SW,6.9,-,N/A,,Mostly Cloudy,230,2014-05-06 16:35:00
9:55 AM,55.4,44.6,67,29.87,10.0,West,8.1,-,N/A,,Mostly Cloudy,270,2014-05-06 16:55:00
10:15 AM,57.2,42.8,59,29.87,10.0,SW,4.6,-,N/A,,Scattered Clouds,220,2014-05-06 17:15:00
10:35 AM,53.6,41.0,62,29.87,10.0,SW,3.5,-,N/A,,Scattered Clouds,220,2014-05-06 17:35:00
11:15 AM,57.2,44.6,63,29.87,10.0,WSW,6.9,-,N/A,,Overcast,240,2014-05-06 18:15:00
11:35 AM,57.2,41.0,55,29.86,10.0,South,6.9,-,N/A,,Mostly Cloudy,190,2014-05-06 18:35:00
11:55 AM,57.2,41.0,55,29.86,10.0,SSW,6.9,16.1,N/A,,Overcast,200,2014-05-06 18:55:00
12:15 PM,57.2,41.0,55,29.86,10.0,SW,9.2,-,N/A,,Overcast,230,2014-05-06 19:15:00
12:35 PM,57.2,44.6,63,29.86,10.0,SSW,8.1,16.1,N/A,,Mostly Cloudy,210,2014-05-06 19:35:00
12:55 PM,55.4,42.8,63,29.86,10.0,South,5.8,-,N/A,,Overcast,170,2014-05-06 19:55:00
1:15 PM,55.4,42.8,63,29.86,10.0,SW,5.8,-,N/A,,Overcast,230,2014-05-06 20:15:00
1:35 PM,53.6,42.8,67,29.87,10.0,NE,5.8,-,N/A,,Overcast,50,2014-05-06 20:35:00
1:55 PM,50.0,46.4,87,29.88,4.0,ESE,3.5,-,0.01,,Overcast,110,2014-05-06 20:55:00
2:15 PM,48.2,46.4,93,29.88,2.5,Calm,Calm,-,0.06,,Unknown,0,2014-05-06 21:15:00
2:35 PM,48.2,46.4,93,29.88,2.5,Calm,Calm,-,0.11,,Mostly Cloudy,0,2014-05-06 21:35:00
2:55 PM,50.0,48.2,94,29.87,4.0,Calm,Calm,-,0.11,,Partly Cloudy,0,2014-05-06 21:55:00
3:15 PM,51.8,48.2,88,29.87,10.0,Calm,Calm,-,N/A,,Scattered Clouds,0,2014-05-06 22:15:00
3:35 PM,50.0,48.2,94,29.87,-9999.0,Calm,Calm,-,N/A,,Unknown,0,2014-05-06 22:35:00
3:55 PM,51.8,48.2,88,29.87,10.0,Calm,Calm,-,N/A,,Clear,0,2014-05-06 22:55:00
4:15 PM,53.6,50.0,88,29.86,10.0,Calm,Calm,-,N/A,,Clear,0,2014-05-06 23:15:00
4:35 PM,53.6,48.2,82,29.86,10.0,Calm,Calm,-,N/A,,Clear,0,2014-05-06 23:35:00
4:55 PM,55.4,48.2,77,29.85,10.0,North,3.5,-,N/A,,Clear,360,2014-05-06 23:55:00
5:15 PM,55.4,48.2,77,29.85,10.0,NW,4.6,-,N/A,,Clear,320,2014-05-07 00:15:00
5:35 PM,57.2,46.4,67,29.84,10.0,NNE,6.9,-,N/A,,Partly Cloudy,30,2014-05-07 00:35:00
5:55 PM,57.2,48.2,72,29.84,10.0,NW,3.5,-,N/A,,Partly Cloudy,320,2014-05-07 00:55:00
6:15 PM,57.2,46.4,67,29.84,10.0,North,4.6,-,N/A,,Partly Cloudy,350,2014-05-07 01:15:00
6:35 PM,57.2,48.2,72,29.84,10.0,NW,3.5,-,N/A,,Partly Cloudy,310,2014-05-07 01:35:00
6:55 PM,55.4,48.2,77,29.84,10.0,Calm,Calm,-,N/A,,Clear,0,2014-05-07 01:55:00
7:15 PM,53.6,48.2,82,29.85,10.0,NW,3.5,-,N/A,,Clear,320,2014-05-07 02:15:00
7:35 PM,51.8,48.2,88,29.85,10.0,Calm,Calm,-,N/A,,Scattered Clouds,0,2014-05-07 02:35:00
7:55 PM,51.8,48.2,88,29.86,10.0,West,3.5,-,N/A,,Mostly Cloudy,280,2014-05-07 02:55:00
8:35 PM,51.8,48.2,88,29.88,10.0,NW,4.6,-,N/A,,Overcast,310,2014-05-07 03:35:00
8:55 PM,51.8,46.4,82,29.87,10.0,Calm,Calm,-,N/A,,Overcast,0,2014-05-07 03:55:00
9:15 PM,50.0,46.4,87,29.88,10.0,Calm,Calm,-,N/A,,Scattered Clouds,0,2014-05-07 04:15:00
9:35 PM,48.2,46.4,93,29.88,10.0,Calm,Calm,-,N/A,,Clear,0,2014-05-07 04:35:00
9:55 PM,46.4,44.6,93,29.89,10.0,Calm,Calm,-,N/A,,Clear,0,2014-05-07 04:55:00
10:15 PM,46.4,44.6,93,29.89,10.0,Calm,Calm,-,N/A,,Partly Cloudy,0,2014-05-07 05:15:00
10:35 PM,44.6,44.6,100,29.89,10.0,Calm,Calm,-,N/A,,Clear,0,2014-05-07 05:35:00
10:55 PM,44.6,42.8,93,29.88,10.0,Calm,Calm,-,N/A,,Clear,0,2014-05-07 05:55:00
11:15 PM,44.6,42.8,93,29.88,10.0,Calm,Calm,-,N/A,,Clear,0,2014-05-07 06:15:00
11:35 PM,44.6,42.8,93,29.88,10.0,Calm,Calm,-,N/A,,Clear,0,2014-05-07 06:35:00
11:55 PM,42.8,41.0,93,29.88,10.0,Calm,Calm,-,N/A,,Clear,0,2014-05-07 06:55:00